This is the latest recevied weather packets stored in our database for station/object WP4PW. If no packets are shown the sender has not sent any weather packets the latest 10 day(s).
| Time | Temp. | Humidity | Pressure | Rain* | Wind** | Luminosity | Snow |
|---|---|---|---|---|---|---|---|
| 1778162160 | 29.44° C | 78% | 1022.6 hPa | 0 mm | - | 680 W/m² | - |
| 1778161852 | 29.44° C | 78% | 1022.4 hPa | 0 mm | - | 176 W/m² | - |
| 1778161548 | 30° C | 77% | 1022.4 hPa | 0 mm | - | 624 W/m² | - |
| 1778161243 | 30° C | 77% | 1022.2 hPa | 0 mm | - | 586 W/m² | - |
| 1778160940 | 30° C | 77% | 1022.2 hPa | 0 mm | - | 575 W/m² | - |
| 1778160638 | 29.44° C | 76% | 1022.1 hPa | 0 mm | - | 564 W/m² | - |
| 1778160334 | 30° C | 76% | 1022.1 hPa | 0 mm | - | 549 W/m² | - |
| 1778160031 | 29.44° C | 79% | 1021.8 hPa | 0 mm | - | 546 W/m² | - |
| 1778159728 | 29.44° C | 78% | 1021.9 hPa | 0 mm | - | 545 W/m² | - |
| 1778159425 | 28.89° C | 80% | 1022 hPa | 0 mm | - | 586 W/m² | - |
| 1778159122 | 29.44° C | 79% | 1021.9 hPa | 0 mm | - | 517 W/m² | - |
| 1778158820 | 29.44° C | 80% | 1021.8 hPa | 0 mm | - | 504 W/m² | - |
| 1778158519 | 28.89° C | 80% | 1021.8 hPa | 0 mm | - | 517 W/m² | - |
| 1778158215 | 29.44° C | 81% | 1021.8 hPa | 0 mm | - | 196 W/m² | - |
| 1778157912 | 29.44° C | 80% | 1021.7 hPa | 0 mm | - | 486 W/m² | - |
| 1778157610 | 28.89° C | 81% | 1021.9 hPa | 0 mm | - | 439 W/m² | - |
| 1778157308 | 29.44° C | 78% | 1021.6 hPa | 0 mm | - | 429 W/m² | - |
| 1778157004 | 28.89° C | 80% | 1021.6 hPa | 0 mm | - | 444 W/m² | - |
| 1778156699 | 28.89° C | 80% | 1021.5 hPa | 0 mm | - | 165 W/m² | - |
| 1778156395 | 28.89° C | 81% | 1021.5 hPa | 0 mm | - | 345 W/m² | - |
| 1778156090 | 28.89° C | 81% | 1021.4 hPa | 0 mm | - | 487 W/m² | - |
| 1778155787 | 28.33° C | 85% | 1021.3 hPa | 0 mm | - | 395 W/m² | - |
| 1778155483 | 28.89° C | 83% | 1021.3 hPa | 0 mm | - | 159 W/m² | - |
| 1778155181 | 28.33° C | 84% | 1021.4 hPa | 0 mm | - | 142 W/m² | - |
| 1778154876 | 28.89° C | 82% | 1021.2 hPa | 0 mm | - | 362 W/m² | - |
* Rain latest hour (hover to see other rain measurements)
** Current wind speed in m/s (hover to see current wind gust speed)